Regional Weather Roundup
Issued by NWS

Home | Current Version | Previous Version | Graphics & Text | Print | Product List | Glossary On
Versions: 1 2 3 4 5 6 7 8 9 10 11 12 13 14 15 16 17 18 19 20 21 22 23 24 25 26 27 28 29 30 31 32 33 34 35 36 37 38 39 40 41 42 43 44 45 46 47 48 49 50
907
ASUS45 KTFX 121410
RWRMT
MONTANA REGIONAL WEATHER ROUNDUP
NATIONAL WEATHER SERVICE GREAT FALLS MT
700 AM MST FRI FEB 12 2016

NOTE: "FAIR" INDICATES FEW OR NO CLOUDS BELOW 12000 FEET WITH NO
SIGNIFICANT WEATHER AND/OR OBSTRUCTIONS TO VISIBILITY.

MTZ001>007-043-121500-
WEST OF THE DIVIDE

CITY           SKY/WX    TMP DP  RH WIND       PRES   REMARKS
KALISPELL      CLOUDY    33  32  96 W5        30.21F FOG
MISSOULA       FOG       34  33  96 CALM      30.24S VSB 1/2
BUTTE          CLOUDY    33  32  96 S3        30.23F
MULLAN PASS    FOG       35  34  96 S7        30.17F VSB 1/4 WCI  29
ANACONDA         N/A     36  34  93 SW5       30.22S
DEER LODGE       N/A     34  34 100 CALM      30.23F
HAMILTON         N/A     37  37 100 CALM      30.22S
$$

MTZ008-052>055-121500-
SOUTHWEST MONTANA

CITY           SKY/WX    TMP DP  RH WIND       PRES   REMARKS
BOZEMAN        LGT RAIN  35  32  88 S6        30.25S WCI  30
DILLON         CLOUDY    35  28  75 VRB5      30.24S
ENNIS          CLOUDY    37  32  81 S9        30.31S WCI  31
TWIN BRIDGES     N/A     36  31  82 E5        30.21
$$

MTZ009-010-012-014-046-048-049-054-121500-
EAST SLOPES AND CENTRAL MONTANA

CITY           SKY/WX    TMP DP  RH WIND       PRES   REMARKS
CUT BANK       CLOUDY    31  29  92 SE10      30.19F WCI  22
GREAT FALLS    CLOUDY    33  30  88 E7        30.21F WCI  27
MALMSTROM AFB  LGT RAIN  32  32 100 NE8       30.22F WCI  25
HELENA         CLOUDY    34  32  92 CALM      30.22S
CHOTEAU          N/A     34  30  86 SE9       30.22S WCI  26
CONRAD           N/A     33  33 100 N3        30.21F
$$

MTZ011-013-016-021-045-047-050-051-121500-
NORTH CENTRAL MONTANA

CITY           SKY/WX    TMP DP  RH WIND       PRES   REMARKS
HAVRE          CLOUDY    30  28  92 E15       30.29F WCI  19
LEWISTOWN      CLOUDY    34  29  82 E8        30.23F WCI  27
N BAR RANCH    FOG       28  28 100 E8        30.27S VSB<1/4 WCI  20
CHINOOK          N/A     28  27  93 E14G22    30.34S WCI  17
$$

MTZ017>020-022>027-061-062-121500-
NORTHEAST MONTANA

CITY           SKY/WX    TMP DP  RH WIND       PRES   REMARKS
GLASGOW        CLOUDY    18  14  84 E17       30.43S WCI   3
JORDAN           N/A     27  25  92 E10       30.36S WCI  17
SIDNEY         CLOUDY    12   7  79 NE8       30.51R WCI   1
WOLF POINT     CLOUDY    15   6  67 E14       30.51R WCI   0
PLENTYWOOD       N/A      0  -8  71 E6        30.51R WCI -12
POPLAR           N/A      9   1  72 NE10      30.52R WCI  -6
SCOBEY           N/A      7  -6  55 N5        30.42
$$

MTZ028>42-056>058-121500-
SOUTHCENTRAL AND SOUTHEAST MONTANA

CITY           SKY/WX    TMP DP  RH WIND       PRES   REMARKS
BAKER          CLOUDY    22  16  78 E9        30.39R WCI  12
BILLINGS       CLOUDY    31  29  92 NE7       30.28S WCI  24
LIVINGSTON     CLOUDY    37  29  72 CALM      30.25S
MILES CITY     CLOUDY    29  25  85 NE9       30.37R WCI  20
FORSYTH          N/A     32  30  93 E5        30.34F
LAUREL           N/A     35  27  73 CALM      30.23S
ROUNDUP          N/A     30  26  85 CALM      30.18S
$$

REGIONAL REPORTS...DAKOTAS

CITY           SKY/WX    TMP DP  RH WIND       PRES   REMARKS
WILLISTON      PTCLDY     0  -5  79 CALM      30.54R
MINOT          PTCLDY    -3 -12  65 NW9       30.56R WCI -19
DICKINSON      FLURRIES   9   5  84 NE13      30.42R WCI  -7
BEACH          CLOUDY    18  16  93 NE7       30.44R WCI   8
CROSBY           N/A     -8 -11  84 NW3       30.57R
TIOGA            N/A     -6  -8  92 CALM      30.55R
WATFORD CITY     N/A      3  -2  78 E6        30.52R WCI  -8
BISMARCK       CLOUDY     5  -3  69 N9        30.54R WCI  -9
GRAND FORKS    PTCLDY    -3 -13  62 N23       30.57R WCI -27
FARGO          CLEAR      0  -8  69 N17       30.54R WCI -21
BUFFALO SD       N/A     25  20  81 NE8       30.31R WCI  16
RAPID CITY     CLOUDY    29  26  89 NE8       30.35R WCI  21
$$

REGIONAL REPORTS...WYOMING/IDAHO/WASHINGTON

CITY           SKY/WX    TMP DP  RH WIND       PRES   REMARKS
GILLETTE       FOG       28  27  96 NE5       30.33R VSB 1/2
SHERIDAN       CLOUDY    30  28  93 CALM      30.28S
BUFFALO WY     CLOUDY    34  26  72 S5        30.30R
CODY           CLOUDY    30  19  64 CALM      30.25R
YELLOWSTONE LA   N/A     27  25  92 CALM      30.36S
IDAHO FALLS    CLOUDY    17  14  88 NE3       30.36S
SALMON         CLOUDY    19  16  86 SE3       30.34S
BOISE          CLEAR     31  27  85 CALM      30.33S
SPOKANE        CLOUDY    38  37  97 NE6       30.18F
$$

REGIONAL REPORTS...ALBERTA

CITY           SKY/WX    TMP DP  RH WIND       PRES   REMARKS
EDMONTON       CLOUDY    16  10  79 SE12      30.27F WCI   3
CALGARY        FOG       27  25  93 SE14      30.16F VSB 1/4 WCI  15
LETHBRIDGE     CLOUDY    30  30 100 E7        30.20F FOG     WCI  23
MEDICINE HAT   CLOUDY    23  21  93 E13G18    30.29F WCI  11
WATERTON GATE    N/A     28  27  93 NE6         N/A  WCI  22
CARDSTON         N/A     28  28 100 N1          N/A
MILK RIVER       N/A     28  27  93 SE5         N/A
$$

REGIONAL REPORTS...SASKATCHEWAN

CITY           SKY/WX    TMP DP  RH WIND       PRES   REMARKS
SWIFT CURRENT  CLOUDY     7   3  85 SE15      30.38F WCI -11
REGINA         PTCLDY     0  -6  78 SE5       30.56R
SASKATOON      PTCLDY    -4  -9  77 SE8       30.60S WCI -19
CYPRESS HILLS    N/A     19  18  93 SE5         N/A
VAL MARIE        N/A     16  12  86 E12         N/A  WCI   3
ROCKGLEN         N/A      5   1  85 E3          N/A
ASSINIBOIA       N/A     12   9  85 SE10        N/A  WCI  -1
$$




USA.gov is the U.S. government's official web portal to all federal, state and local government web resources and services.